Location: Banff
(51.1667°N, 115.5667°W)
Time: 10:25:28
(UTC+00:00)

SR - Pass Details

Date: 03 December 2020
Orbit: 575 x 880 km, 66.7° (Epoch: 19 January)

Event Time Altitude Azimuth Distance (km) Brightness Sun altitude
Rises 03:04:13 0° 255° (WSW) 2,871 ? -31.4°
Reaches altitude 10° 03:06:41 10° 267° (W) 2,007 ? -31.8°
Enters shadow 03:09:55 26° 312° (NW) 1,275 ? -32.3°
